* Astronomy

Members Login
Username 
 
Password 
    Remember Me  
Post Info TOPIC: Asteroid 2012 HD25


L

Posts: 131433
Date:
Asteroid 2012 HD25
Permalink  
 


Orbital elements:
2012 HD25                                                Earth MOID = 0.0247 AU
Epoch 2012 Mar. 14.0 TT = JDT 2456000.5                 MPC
M   3.25396              (2000.0)            P               Q
n   0.34536790     Peri.   93.06041     -0.71278452     -0.69784365
a   2.0119387      Node    42.70097     +0.59522638     -0.65492323
e   0.6382866      Incl.    5.95630     +0.37100376     -0.28998241
P   2.85           H   23.3           G   0.15           U   8

MPEC 2012 - H79



__________________
Page 1 of 1  sorted by
 
Quick Reply

Please log in to post quick replies.



Create your own FREE Forum
Report Abuse
Powered by ActiveBoard